Date,TemperatureHighF,TemperatureAvgF,TemperatureLowF,DewpointHighF,DewpointAvgF,DewpointLowF,HumidityHigh,HumidityAvg,HumidityLow,PressureMaxIn,PressureMinIn,WindSpeedMaxMPH,WindSpeedAvgMPH,GustSpeedMaxMPH,PrecipitationSumIn
2013-1-1,48.9,43.9,38.8,47.8,39.5,35.6,97,85,65,29.64,29.18,3,1,6,0.00
2013-1-2,52.5,51.5,49.1,52.1,51.1,48.8,99,98,97,30.01,29.90,4,2,7,0.00
2013-1-3,54.5,52.3,49.5,51.7,50.6,49.0,99,94,89,30.30,30.01,3,1,6,0.00
2013-1-4,52.2,50.6,47.7,49.0,46.3,43.9,95,85,76,30.34,30.29,2,1,4,0.00
2013-1-5,52.9,49.4,44.2,51.5,47.9,43.7,99,95,87,30.29,30.19,2,0,4,0.00
2013-1-6,48.6,45.6,42.3,48.3,45.3,42.0,99,99,97,30.20,30.08,2,0,4,0.00
2013-1-7,49.1,47.4,45.7,48.2,46.9,45.3,99,98,94,30.08,29.92,2,0,4,0.00
2013-1-8,53.8,50.9,47.3,49.5,48.1,45.1,99,90,81,29.94,29.86,4,1,9,0.00
2013-1-9,50.2,45.4,31.8,49.9,44.0,31.6,99,95,78,29.86,29.76,2,0,5,0.00
2013-1-10,41.0,37.3,31.3,40.5,36.6,31.0,99,98,94,29.76,29.59,2,0,3,0.00
2013-1-11,45.5,37.1,34.0,40.6,35.5,33.7,99,94,82,29.72,29.65,0,0,2,0.00
2013-1-12,41.5,39.0,34.2,39.1,35.0,29.9,99,86,63,29.65,29.50,5,2,11,0.00
2013-1-13,39.7,36.7,33.1,36.4,30.3,27.6,89,78,67,29.82,29.62,2,0,5,0.01
2013-1-14,37.6,34.1,32.2,37.3,32.1,27.8,99,92,81,29.78,29.32,2,0,4,0.02
2013-1-15,40.8,32.3,27.0,33.5,28.0,25.2,94,84,74,29.55,29.51,0,0,2,0.00
2013-1-16,38.1,29.7,24.6,32.4,27.7,23.4,99,93,74,29.69,29.50,2,0,4,0.00
2013-1-17,36.1,31.2,24.3,35.6,29.1,23.5,99,92,74,29.75,29.55,2,0,4,0.00
2013-1-18,35.2,32.0,29.8,30.6,28.5,25.9,98,87,71,29.55,29.09,3,1,5,0.00
2013-1-19,34.5,32.5,30.9,32.5,30.1,26.4,97,91,79,29.14,29.06,2,1,4,0.00
2013-1-20,33.1,31.9,30.6,31.7,29.4,26.0,99,91,79,29.13,28.95,2,0,4,0.00
2013-1-21,43.7,32.2,25.7,35.6,29.9,24.2,99,92,69,29.17,28.92,1,0,2,0.00
2013-1-22,38.5,30.8,22.1,38.2,29.5,20.8,99,95,86,29.33,29.17,4,1,8,0.00
2013-1-23,37.2,36.1,35.4,33.2,31.6,30.1,89,84,78,29.47,29.33,2,1,6,0.00
2013-1-24,37.0,35.3,33.6,32.1,29.6,25.5,91,79,64,29.81,29.47,2,0,4,0.00
2013-1-25,39.2,35.4,33.1,36.0,29.4,26.9,92,79,69,29.80,29.24,3,1,6,0.00
2013-1-26,47.3,42.0,36.7,44.6,39.5,35.7,99,91,73,29.50,29.21,4,1,8,0.00
2013-1-27,51.3,46.6,39.7,51.0,41.5,34.7,99,84,54,29.29,28.93,8,3,16,0.00
2013-1-28,52.3,44.0,35.8,50.6,40.8,33.6,99,89,77,29.50,29.19,8,2,17,0.00
2013-1-29,57.6,54.1,49.8,55.8,52.7,46.0,99,95,78,29.33,29.22,5,3,13,0.00
2013-1-30,55.8,51.3,45.9,54.8,44.5,36.0,99,79,51,29.72,29.17,9,4,15,0.00
2013-1-31,52.9,49.2,45.3,47.6,41.1,36.6,95,74,57,29.73,29.47,7,3,13,0.00